Weather History for KMLS - December, 2011

Change the Weather History Date:

Thursday, December 29, 2011

  Actual Average Record
Temperature  
Mean Temperature 44 °F 18 °F  
Max Temperature 54 °F 29 °F 60 °F (1956)
Min Temperature 34 °F 8 °F -28 °F (1990)
Degree Days  
Heating Degree Days 21 47  
Month to date heating degree days 1045 1291  
Since 1 July heating degree days 2589 3090  
Cooling Degree Days 0 0  
Month to date cooling degree days 0 0  
Year to date cooling degree days 763 730  
Moisture  
Dew Point 26 °F    
Average Humidity 50    
Maximum Humidity 70    
Minimum Humidity 30    
Precipitation  
Precipitation T in 0.02 in 0.80 in ()
Month to date precipitation 0.07 0.27  
Year to date precipitation 18.72 12.42  
Sea Level Pressure  
Sea Level Pressure 29.61 in    
Wind  
Wind Speed 17 mph (West)    
Max Wind Speed 44 mph    
Max Gust Speed 54 mph    
Visibility 10 miles    
Events      
T = Trace of Precipitation, MM = Missing Value Source: NWS Daily Summary

Daily Weather History Graph

Daily Weather History Graph

Search for Another Location

Airport or City:

Trip Planner

Search our weather history database for the weather conditions in past years. The results will help you decide how hot, cold, wet, or windy it might be!

Date:

Astronomy

Dec. 29, 2011 Rise Set
Actual Time 7:46 AM MST 4:24 PM MST
Civil Twilight 7:11 AM MST 4:59 PM MST
Nautical Twilight 6:33 AM MST 5:37 PM MST
Astronomical Twilight 5:56 AM MST 6:14 PM MST
Moon 10:22 AM MST (12/29) 10:24 PM MST (12/29)
Length of Visible Light 9h 47m
Length of Day
8h 37m
Waxing Crescent, 27% of the Moon is Illuminated
Dec 29
Waxing Crescent
Dec 31
First Quarter
Jan 9
Full
Jan 16
Last Quarter
Jan 23
New

Hourly Weather History & Observations

Time (MST) Temp. Windchill Dew Point Humidity Pressure Visibility Wind Dir Wind Speed Gust Speed Precip Events Conditions
12:53 AM 36.0 °F 32.1 °F 27.0 °F 70% 29.63 in 10.0 mi South 4.6 mph - N/A   Clear
1:53 AM 39.0 °F 35.7 °F 28.0 °F 65% 29.60 in 10.0 mi SSW 4.6 mph - N/A   Clear
2:53 AM 37.0 °F 31.6 °F 28.0 °F 70% 29.58 in 10.0 mi SSE 6.9 mph - N/A   Overcast
3:53 AM 37.0 °F 30.4 °F 27.0 °F 67% 29.56 in 10.0 mi SSE 9.2 mph - N/A   Mostly Cloudy
4:53 AM 39.0 °F 34.0 °F 28.9 °F 67% 29.55 in 10.0 mi WSW 6.9 mph - N/A   Overcast
6:53 AM 37.0 °F 31.0 °F 28.0 °F 70% 29.47 in 10.0 mi SSE 8.1 mph - N/A   Clear
8:53 AM 51.1 °F - 33.1 °F 50% 29.45 in 10.0 mi West 28.8 mph 35.7 mph N/A   Mostly Cloudy
9:53 AM 48.2 °F - 33.8 °F 58% 29.49 in 10.0 mi West 12.7 mph - N/A   Mostly Cloudy
10:53 AM 48.0 °F - 35.1 °F 61% 29.52 in 10.0 mi West 6.9 mph - N/A   Clear
11:53 AM 50.0 °F - 35.1 °F 57% 29.52 in 10.0 mi West 17.3 mph - N/A   Clear
12:53 PM 53.1 °F - 27.0 °F 37% 29.52 in 10.0 mi West 26.5 mph 36.8 mph N/A   Clear
1:53 PM 52.0 °F - 21.9 °F 31% 29.52 in 10.0 mi West 24.2 mph 32.2 mph N/A   Clear
2:53 PM 51.1 °F - 21.0 °F 31% 29.57 in 10.0 mi WNW 31.1 mph 47.2 mph N/A   Mostly Cloudy
3:53 PM 46.0 °F 36.1 °F 25.0 °F 44% 29.61 in 10.0 mi WNW 34.5 mph 47.2 mph N/A   Clear
4:53 PM 46.0 °F 37.0 °F 26.1 °F 46% 29.63 in 10.0 mi WNW 27.6 mph 41.4 mph N/A   Mostly Cloudy
5:53 PM 45.0 °F 35.1 °F 23.0 °F 42% 29.66 in 10.0 mi WNW 31.1 mph 43.7 mph N/A   Clear
6:53 PM 44.1 °F 34.6 °F 21.9 °F 42% 29.70 in 10.0 mi West 26.5 mph 35.7 mph N/A   Partly Cloudy
7:53 PM 43.0 °F 33.3 °F 21.0 °F 42% 29.73 in 10.0 mi WNW 25.3 mph 34.5 mph N/A   Clear
8:53 PM 41.0 °F 31.6 °F 21.2 °F 45% 29.73 in 10.0 mi WNW 20.7 mph 27.6 mph N/A   Clear
9:53 PM 37.9 °F 30.5 °F 23.0 °F 55% 29.79 in 10.0 mi WNW 11.5 mph - N/A   Clear
10:53 PM 37.9 °F 28.2 °F 21.0 °F 51% 29.81 in 10.0 mi West 18.4 mph - N/A   Clear
11:53 PM 36.0 °F 28.0 °F 19.0 °F 50% 29.83 in 10.0 mi West 11.5 mph - N/A   Clear